Вернуться в каталог

QIANFAN-103

АктивенСвязьPO
NORAD 66045·PAYLOAD·🇨🇳 China

Запущен Oct 17, 2025 с Taiyuan Satellite Launch Center

Loading…

Ближайшие Пролёты (ближайшие 24 часа)

TLE

СвежийSource: Space-Track

Эпоха: Sep 14, 2026, 15:35 UTC

1 66045U 25233N   26257.64990213  .00000066  00000-0  83354-4 0  9991
2 66045  89.0053  34.1552 0001887  92.5025 267.6342 13.51020835 45260

Отслеживайте QIANFAN-103 в реальном времени с AllMySat

Download on the App Store